Year,Month,Day,Hour,Minute,Value (Times are PST for temperature in C)
2015,12,07,00,00,9.00
2015,12,07,00,01,9.00
2015,12,07,00,02,9.00
2015,12,07,00,03,9.00
2015,12,07,00,04,9.00
2015,12,07,00,05,9.00
2015,12,07,00,06,9.00
2015,12,07,00,07,9.00
2015,12,07,00,08,9.00
2015,12,07,00,09,9.00
2015,12,07,00,10,9.00
2015,12,07,00,11,9.10
2015,12,07,00,12,9.10
2015,12,07,00,13,9.10
2015,12,07,00,14,9.10
2015,12,07,00,15,9.10
2015,12,07,00,16,9.10
2015,12,07,00,17,9.10
2015,12,07,00,18,9.10
2015,12,07,00,19,9.10
2015,12,07,00,20,9.10
2015,12,07,00,21,9.10
2015,12,07,00,22,9.10
2015,12,07,00,23,9.10
2015,12,07,00,24,9.10
2015,12,07,00,25,9.10
2015,12,07,00,26,9.10
2015,12,07,00,27,9.00
2015,12,07,00,28,9.00
2015,12,07,00,29,9.00
2015,12,07,00,30,9.00
2015,12,07,00,31,9.00
2015,12,07,00,32,9.00
2015,12,07,00,33,9.00
2015,12,07,00,34,9.00
2015,12,07,00,35,9.00
2015,12,07,00,36,9.00
2015,12,07,00,37,8.90
2015,12,07,00,38,8.90
2015,12,07,00,39,8.90
2015,12,07,00,40,9.00
2015,12,07,00,41,9.00
2015,12,07,00,42,9.00
2015,12,07,00,43,9.00
2015,12,07,00,44,9.00
2015,12,07,00,45,9.00
2015,12,07,00,46,9.00
2015,12,07,00,47,8.90
2015,12,07,00,48,9.00
2015,12,07,00,49,9.00
2015,12,07,00,50,9.00
2015,12,07,00,51,9.00
2015,12,07,00,52,9.00
2015,12,07,00,53,9.00
2015,12,07,00,54,9.00
2015,12,07,00,55,9.00
2015,12,07,00,56,9.00
2015,12,07,00,57,9.00
2015,12,07,00,58,9.00
2015,12,07,00,59,9.00
2015,12,07,01,00,9.00
2015,12,07,01,01,9.00
2015,12,07,01,02,9.00
2015,12,07,01,03,9.00
2015,12,07,01,04,8.90
2015,12,07,01,05,8.90
2015,12,07,01,06,8.90
2015,12,07,01,07,8.90
2015,12,07,01,08,8.90
2015,12,07,01,09,8.90
2015,12,07,01,10,9.00
2015,12,07,01,11,9.10
2015,12,07,01,12,9.30
2015,12,07,01,13,9.70
2015,12,07,01,14,10.00
2015,12,07,01,15,10.30
2015,12,07,01,16,10.40
2015,12,07,01,17,10.60
2015,12,07,01,18,10.70
2015,12,07,01,19,10.90
2015,12,07,01,20,11.10
2015,12,07,01,21,11.30
2015,12,07,01,22,11.60
2015,12,07,01,23,11.80
2015,12,07,01,24,12.00
2015,12,07,01,25,12.10
2015,12,07,01,26,12.30
2015,12,07,01,27,12.40
2015,12,07,01,28,12.50
2015,12,07,01,29,12.50
2015,12,07,01,30,12.50
2015,12,07,01,31,12.50
2015,12,07,01,32,12.50
2015,12,07,01,33,12.50
2015,12,07,01,34,12.50
2015,12,07,01,35,12.60
2015,12,07,01,36,12.60
2015,12,07,01,37,12.70
2015,12,07,01,38,12.70
2015,12,07,01,39,12.80
2015,12,07,01,40,12.80
2015,12,07,01,41,12.80
2015,12,07,01,42,12.80
2015,12,07,01,43,12.80
2015,12,07,01,44,12.70
2015,12,07,01,45,12.50
2015,12,07,01,46,12.30
2015,12,07,01,47,11.90
2015,12,07,01,48,11.40
2015,12,07,01,49,11.10
2015,12,07,01,50,10.90
2015,12,07,01,51,10.80
2015,12,07,01,52,10.70
2015,12,07,01,53,10.70
2015,12,07,01,54,10.50
2015,12,07,01,55,10.40
2015,12,07,01,56,10.30
2015,12,07,01,57,10.10
2015,12,07,01,58,10.00
2015,12,07,01,59,9.80
2015,12,07,02,00,9.70
2015,12,07,02,01,9.60
2015,12,07,02,02,9.50
2015,12,07,02,03,9.40
2015,12,07,02,04,9.40
2015,12,07,02,05,9.30
2015,12,07,02,06,9.30
2015,12,07,02,07,9.20
2015,12,07,02,08,9.20
2015,12,07,02,09,9.20
2015,12,07,02,10,9.20
2015,12,07,02,11,9.20
2015,12,07,02,12,9.20
2015,12,07,02,13,9.20
2015,12,07,02,14,9.20
2015,12,07,02,15,9.20
2015,12,07,02,16,9.20
2015,12,07,02,17,9.20
2015,12,07,02,18,9.20
2015,12,07,02,19,9.10
2015,12,07,02,20,9.10
2015,12,07,02,21,9.20
2015,12,07,02,22,9.10
2015,12,07,02,23,9.10
2015,12,07,02,24,9.10
2015,12,07,02,25,9.10
2015,12,07,02,26,9.10
2015,12,07,02,27,9.10
2015,12,07,02,28,9.10
2015,12,07,02,29,9.00
2015,12,07,02,30,9.00
2015,12,07,02,31,9.00
2015,12,07,02,32,9.00
2015,12,07,02,33,9.00
2015,12,07,02,34,9.00
2015,12,07,02,35,9.00
2015,12,07,02,36,9.00
2015,12,07,02,37,9.00
2015,12,07,02,38,9.00
2015,12,07,02,39,9.00
2015,12,07,02,40,9.00
2015,12,07,02,41,8.90
2015,12,07,02,42,8.90
2015,12,07,02,43,8.90
2015,12,07,02,44,8.80
2015,12,07,02,45,8.80
2015,12,07,02,46,8.80
2015,12,07,02,47,8.80
2015,12,07,02,48,8.80
2015,12,07,02,49,8.80
2015,12,07,02,50,8.80
2015,12,07,02,51,8.80
2015,12,07,02,52,8.80
2015,12,07,02,53,8.80
2015,12,07,02,54,8.80
2015,12,07,02,55,8.80
2015,12,07,02,56,8.80
2015,12,07,02,57,8.80
2015,12,07,02,58,8.70
2015,12,07,02,59,8.70
2015,12,07,03,00,8.70
2015,12,07,03,01,8.70
2015,12,07,03,02,8.70
2015,12,07,03,03,8.70
2015,12,07,03,04,8.60
2015,12,07,03,05,8.60
2015,12,07,03,06,8.70
2015,12,07,03,07,8.70
2015,12,07,03,08,8.70
2015,12,07,03,09,8.70
2015,12,07,03,10,8.60
2015,12,07,03,11,8.60
2015,12,07,03,12,8.50
2015,12,07,03,13,8.50
2015,12,07,03,14,8.40
2015,12,07,03,15,8.30
2015,12,07,03,16,8.30
2015,12,07,03,17,8.20
2015,12,07,03,18,8.20
2015,12,07,03,19,8.20
2015,12,07,03,20,8.20
2015,12,07,03,21,8.20
2015,12,07,03,22,8.10
2015,12,07,03,23,8.00
2015,12,07,03,24,8.00
2015,12,07,03,25,7.90
2015,12,07,03,26,7.90
2015,12,07,03,27,7.90
2015,12,07,03,28,7.90
2015,12,07,03,29,7.80
2015,12,07,03,30,7.80
2015,12,07,03,31,7.80
2015,12,07,03,32,7.80
2015,12,07,03,33,7.70
2015,12,07,03,34,7.70
2015,12,07,03,35,7.70
2015,12,07,03,36,7.60
2015,12,07,03,37,7.60
2015,12,07,03,38,7.60
2015,12,07,03,39,7.60
2015,12,07,03,40,7.60
2015,12,07,03,41,7.60
2015,12,07,03,42,7.50
2015,12,07,03,43,7.50
2015,12,07,03,44,7.40
2015,12,07,03,45,7.40
2015,12,07,03,46,7.30
2015,12,07,03,47,7.30
2015,12,07,03,48,7.30
2015,12,07,03,49,7.30
2015,12,07,03,50,7.30
2015,12,07,03,51,7.20
2015,12,07,03,52,7.20
2015,12,07,03,53,7.10
2015,12,07,03,54,7.10
2015,12,07,03,55,7.10
2015,12,07,03,56,7.00
2015,12,07,03,57,7.00
2015,12,07,03,58,7.00
2015,12,07,03,59,6.90
2015,12,07,04,00,6.90
2015,12,07,04,01,6.90
2015,12,07,04,02,6.90
2015,12,07,04,03,6.90
2015,12,07,04,04,6.90
2015,12,07,04,05,6.90
2015,12,07,04,06,6.90
2015,12,07,04,07,6.90
2015,12,07,04,08,6.90
2015,12,07,04,09,6.90
2015,12,07,04,10,6.90
2015,12,07,04,11,6.80
2015,12,07,04,12,6.80
2015,12,07,04,13,6.80
2015,12,07,04,14,6.80
2015,12,07,04,15,6.80
2015,12,07,04,16,6.80
2015,12,07,04,17,6.80
2015,12,07,04,18,6.80
2015,12,07,04,19,6.80
2015,12,07,04,20,6.80
2015,12,07,04,21,6.90
2015,12,07,04,22,6.90
2015,12,07,04,23,6.90
2015,12,07,04,24,7.00
2015,12,07,04,25,7.00
2015,12,07,04,26,7.00
2015,12,07,04,27,7.00
2015,12,07,04,28,7.10
2015,12,07,04,29,7.10
2015,12,07,04,30,7.30
2015,12,07,04,31,7.40
2015,12,07,04,32,7.60
2015,12,07,04,33,7.70
2015,12,07,04,34,7.80
2015,12,07,04,35,7.90
2015,12,07,04,36,8.10
2015,12,07,04,37,8.10
2015,12,07,04,38,8.20
2015,12,07,04,39,8.30
2015,12,07,04,40,8.40
2015,12,07,04,41,8.50
2015,12,07,04,42,8.60
2015,12,07,04,43,8.60
2015,12,07,04,44,8.70
2015,12,07,04,45,8.70
2015,12,07,04,46,8.70
2015,12,07,04,47,8.80
2015,12,07,04,48,8.80
2015,12,07,04,49,8.80
2015,12,07,04,50,8.80
2015,12,07,04,51,8.80
2015,12,07,04,52,8.80
2015,12,07,04,53,8.90
2015,12,07,04,54,8.90
2015,12,07,04,55,8.90
2015,12,07,04,56,8.90
2015,12,07,04,57,8.90
2015,12,07,04,58,8.90
2015,12,07,04,59,8.90
2015,12,07,05,00,8.90
2015,12,07,05,01,8.90
2015,12,07,05,02,8.90
2015,12,07,05,03,8.90
2015,12,07,05,04,8.90
2015,12,07,05,05,8.90
2015,12,07,05,06,8.90
2015,12,07,05,07,8.90
2015,12,07,05,08,8.90
2015,12,07,05,09,9.00
2015,12,07,05,10,9.00
2015,12,07,05,11,9.00
2015,12,07,05,12,9.00
2015,12,07,05,13,9.00
2015,12,07,05,14,9.10
2015,12,07,05,15,9.10
2015,12,07,05,16,9.10
2015,12,07,05,17,9.10
2015,12,07,05,18,9.10
2015,12,07,05,19,9.20
2015,12,07,05,20,9.20
2015,12,07,05,21,9.20
2015,12,07,05,22,9.20
2015,12,07,05,23,9.20
2015,12,07,05,24,9.20
2015,12,07,05,25,9.30
2015,12,07,05,26,9.30
2015,12,07,05,27,9.30
2015,12,07,05,28,9.30
2015,12,07,05,29,9.40
2015,12,07,05,30,9.40
2015,12,07,05,31,9.40
2015,12,07,05,32,9.30
2015,12,07,05,33,9.30
2015,12,07,05,34,9.20
2015,12,07,05,35,9.10
2015,12,07,05,36,9.00
2015,12,07,05,37,9.00
2015,12,07,05,38,8.90
2015,12,07,05,39,8.80
2015,12,07,05,40,8.70
2015,12,07,05,41,8.70
2015,12,07,05,42,8.60
2015,12,07,05,43,8.60
2015,12,07,05,44,8.60
2015,12,07,05,45,8.50
2015,12,07,05,46,8.50
2015,12,07,05,47,8.40
2015,12,07,05,48,8.40
2015,12,07,05,49,8.40
2015,12,07,05,50,8.40
2015,12,07,05,51,8.30
2015,12,07,05,52,8.30
2015,12,07,05,53,8.30
2015,12,07,05,54,8.30
2015,12,07,05,55,8.30
2015,12,07,05,56,8.20
2015,12,07,05,57,8.20
2015,12,07,05,58,8.20
2015,12,07,05,59,8.20
2015,12,07,06,00,8.10
2015,12,07,06,01,8.10
2015,12,07,06,02,8.10
2015,12,07,06,03,8.10
2015,12,07,06,04,8.00
2015,12,07,06,05,8.00
2015,12,07,06,06,7.90
2015,12,07,06,07,7.90
2015,12,07,06,08,7.90
2015,12,07,06,09,7.90
2015,12,07,06,10,7.90
2015,12,07,06,11,7.90
2015,12,07,06,12,7.90
2015,12,07,06,13,7.90
2015,12,07,06,14,7.90
2015,12,07,06,15,7.90
2015,12,07,06,16,7.90
2015,12,07,06,17,7.90
2015,12,07,06,18,7.90
2015,12,07,06,19,7.90
2015,12,07,06,20,7.80
2015,12,07,06,21,7.80
2015,12,07,06,22,7.80
2015,12,07,06,23,7.80
2015,12,07,06,24,7.80
2015,12,07,06,25,7.80
2015,12,07,06,26,7.70
2015,12,07,06,27,7.70
2015,12,07,06,28,7.70
2015,12,07,06,29,7.70
2015,12,07,06,30,7.70
2015,12,07,06,31,7.70
2015,12,07,06,32,7.70
2015,12,07,06,33,7.70
2015,12,07,06,34,7.60
2015,12,07,06,35,7.60
2015,12,07,06,36,7.60
2015,12,07,06,37,7.60
2015,12,07,06,38,7.60
2015,12,07,06,39,7.60
2015,12,07,06,40,7.60
2015,12,07,06,41,7.60
2015,12,07,06,42,7.70
2015,12,07,06,43,7.70
2015,12,07,06,44,7.70
2015,12,07,06,45,7.70
2015,12,07,06,46,7.70
2015,12,07,06,47,7.70
2015,12,07,06,48,7.70
2015,12,07,06,49,7.80
2015,12,07,06,50,7.80
2015,12,07,06,51,7.80
2015,12,07,06,52,7.80
2015,12,07,06,53,7.80
2015,12,07,06,54,7.80
2015,12,07,06,55,7.80
2015,12,07,06,56,7.90
2015,12,07,06,57,7.90
2015,12,07,06,58,7.90
2015,12,07,06,59,7.90
2015,12,07,07,00,7.90
2015,12,07,07,01,7.90
2015,12,07,07,02,8.00
2015,12,07,07,03,8.00
2015,12,07,07,04,8.00
2015,12,07,07,05,8.00
2015,12,07,07,06,8.10
2015,12,07,07,07,8.10
2015,12,07,07,08,8.10
2015,12,07,07,09,8.20
2015,12,07,07,10,8.20
2015,12,07,07,11,8.20
2015,12,07,07,12,8.20
2015,12,07,07,13,8.30
2015,12,07,07,14,8.30
2015,12,07,07,15,8.30
2015,12,07,07,16,8.30
2015,12,07,07,17,8.40
2015,12,07,07,18,8.40
2015,12,07,07,19,8.40
2015,12,07,07,20,8.40
2015,12,07,07,21,8.40
2015,12,07,07,22,8.40
2015,12,07,07,23,8.40
2015,12,07,07,24,8.40
2015,12,07,07,25,8.40
2015,12,07,07,26,8.40
2015,12,07,07,27,8.50
2015,12,07,07,28,8.50
2015,12,07,07,29,8.50
2015,12,07,07,30,8.50
2015,12,07,07,31,8.60
2015,12,07,07,32,8.60
2015,12,07,07,33,8.60
2015,12,07,07,34,8.60
2015,12,07,07,35,8.60
2015,12,07,07,36,8.60
2015,12,07,07,37,8.60
2015,12,07,07,38,8.60
2015,12,07,07,39,8.60
2015,12,07,07,40,8.60
2015,12,07,07,41,8.60
2015,12,07,07,42,8.60
2015,12,07,07,43,8.70
2015,12,07,07,44,8.70
2015,12,07,07,45,8.70
2015,12,07,07,46,8.60
2015,12,07,07,47,8.60
2015,12,07,07,48,8.60
2015,12,07,07,49,8.60
2015,12,07,07,50,8.60
2015,12,07,07,51,8.50
2015,12,07,07,52,8.50
2015,12,07,07,53,8.50
2015,12,07,07,54,8.50
2015,12,07,07,55,8.50
2015,12,07,07,56,8.50
2015,12,07,07,57,8.50
2015,12,07,07,58,8.50
2015,12,07,07,59,8.50
2015,12,07,08,00,8.50
2015,12,07,08,01,8.50
2015,12,07,08,02,8.50
2015,12,07,08,03,8.50
2015,12,07,08,04,8.50
2015,12,07,08,05,8.50
2015,12,07,08,06,8.50
2015,12,07,08,07,8.50
2015,12,07,08,08,8.40
2015,12,07,08,09,8.40
2015,12,07,08,10,8.40
2015,12,07,08,11,8.40
2015,12,07,08,12,8.40
2015,12,07,08,13,8.40
2015,12,07,08,14,8.40
2015,12,07,08,15,8.40
2015,12,07,08,16,8.40
2015,12,07,08,17,8.40
2015,12,07,08,18,8.40
2015,12,07,08,19,8.40
2015,12,07,08,20,8.50
2015,12,07,08,21,8.50
2015,12,07,08,22,8.50
2015,12,07,08,23,8.60
2015,12,07,08,24,8.60
2015,12,07,08,25,8.60
2015,12,07,08,26,8.60
2015,12,07,08,27,8.60
2015,12,07,08,28,8.60
2015,12,07,08,29,8.60
2015,12,07,08,30,8.60
2015,12,07,08,31,8.60
2015,12,07,08,32,8.60
2015,12,07,08,33,8.60
2015,12,07,08,34,8.60
2015,12,07,08,35,8.60
2015,12,07,08,36,8.60
2015,12,07,08,37,8.60
2015,12,07,08,38,8.60
2015,12,07,08,39,8.70
2015,12,07,08,40,8.70
2015,12,07,08,41,8.70
2015,12,07,08,42,8.70
2015,12,07,08,43,8.70
2015,12,07,08,44,8.70
2015,12,07,08,45,8.80
2015,12,07,08,46,8.80
2015,12,07,08,47,8.80
2015,12,07,08,48,8.80
2015,12,07,08,49,8.80
2015,12,07,08,50,8.80
2015,12,07,08,51,8.80
2015,12,07,08,52,8.80
2015,12,07,08,53,8.80
2015,12,07,08,54,8.80
2015,12,07,08,55,8.90
2015,12,07,08,56,8.90
2015,12,07,08,57,8.90
2015,12,07,08,58,8.90
2015,12,07,08,59,8.90
2015,12,07,09,00,8.90
2015,12,07,09,01,8.90
2015,12,07,09,02,8.90
2015,12,07,09,03,8.90
2015,12,07,09,04,8.90
2015,12,07,09,05,8.90
2015,12,07,09,06,8.90
2015,12,07,09,07,8.90
2015,12,07,09,08,8.90
2015,12,07,09,09,8.90
2015,12,07,09,10,8.90
2015,12,07,09,11,9.00
2015,12,07,09,12,9.00
2015,12,07,09,13,9.00
2015,12,07,09,14,9.00
2015,12,07,09,15,9.00
2015,12,07,09,16,9.00
2015,12,07,09,17,9.00
2015,12,07,09,18,9.00
2015,12,07,09,19,9.10
2015,12,07,09,20,9.10
2015,12,07,09,21,9.10
2015,12,07,09,22,9.10
2015,12,07,09,23,9.10
2015,12,07,09,24,9.10
2015,12,07,09,25,9.10
2015,12,07,09,26,9.10
2015,12,07,09,27,9.10
2015,12,07,09,28,9.10
2015,12,07,09,29,9.10
2015,12,07,09,30,9.10
2015,12,07,09,31,9.10
2015,12,07,09,32,9.10
2015,12,07,09,33,9.10
2015,12,07,09,34,9.10
2015,12,07,09,35,9.20
2015,12,07,09,36,9.20
2015,12,07,09,37,9.20
2015,12,07,09,38,9.20
2015,12,07,09,39,9.20
2015,12,07,09,40,9.20
2015,12,07,09,41,9.20
2015,12,07,09,42,9.20
2015,12,07,09,43,9.20
2015,12,07,09,44,9.30
2015,12,07,09,45,9.30
2015,12,07,09,46,9.30
2015,12,07,09,47,9.30
2015,12,07,09,48,9.30
2015,12,07,09,49,9.30
2015,12,07,09,50,9.30
2015,12,07,09,51,9.30
2015,12,07,09,52,9.30
2015,12,07,09,53,9.30
2015,12,07,09,54,9.30
2015,12,07,09,55,9.30
2015,12,07,09,56,9.30
2015,12,07,09,57,9.30
2015,12,07,09,58,9.30
2015,12,07,09,59,9.30
2015,12,07,10,00,9.30
2015,12,07,10,01,9.40
2015,12,07,10,02,9.40
2015,12,07,10,03,9.40
2015,12,07,10,04,9.40
2015,12,07,10,05,9.40
2015,12,07,10,06,9.40
2015,12,07,10,07,9.40
2015,12,07,10,08,9.40
2015,12,07,10,09,9.40
2015,12,07,10,10,9.40
2015,12,07,10,11,9.40
2015,12,07,10,12,9.40
2015,12,07,10,13,9.40
2015,12,07,10,14,9.30
2015,12,07,10,15,9.30
2015,12,07,10,16,9.30
2015,12,07,10,17,9.30
2015,12,07,10,18,9.30
2015,12,07,10,19,9.30
2015,12,07,10,20,9.30
2015,12,07,10,21,9.30
2015,12,07,10,22,9.30
2015,12,07,10,23,9.30
2015,12,07,10,24,9.30
2015,12,07,10,25,9.30
2015,12,07,10,26,9.30
2015,12,07,10,27,9.30
2015,12,07,10,28,9.30
2015,12,07,10,29,9.30
2015,12,07,10,30,9.30
2015,12,07,10,31,9.20
2015,12,07,10,32,9.30
2015,12,07,10,33,9.30
2015,12,07,10,34,9.20
2015,12,07,10,35,9.30
2015,12,07,10,36,9.30
2015,12,07,10,37,9.30
2015,12,07,10,38,9.30
2015,12,07,10,39,9.30
2015,12,07,10,40,9.30
2015,12,07,10,41,9.30
2015,12,07,10,42,9.30
2015,12,07,10,43,9.30
2015,12,07,10,44,9.30
2015,12,07,10,45,9.20
2015,12,07,10,46,9.20
2015,12,07,10,47,9.20
2015,12,07,10,48,9.20
2015,12,07,10,49,9.20
2015,12,07,10,50,9.20
2015,12,07,10,51,9.20
2015,12,07,10,52,9.10
2015,12,07,10,53,9.10
2015,12,07,10,54,9.10
2015,12,07,10,55,9.10
2015,12,07,10,56,9.10
2015,12,07,10,57,9.10
2015,12,07,10,58,9.10
2015,12,07,10,59,9.10
2015,12,07,11,00,9.10
2015,12,07,11,01,9.10
2015,12,07,11,02,9.10
2015,12,07,11,03,9.10
2015,12,07,11,04,9.10
2015,12,07,11,05,9.10
2015,12,07,11,06,9.10
2015,12,07,11,07,9.10
2015,12,07,11,08,9.10
2015,12,07,11,09,9.10
2015,12,07,11,10,9.10
2015,12,07,11,11,9.10
2015,12,07,11,12,9.10
2015,12,07,11,13,9.10
2015,12,07,11,14,9.10
2015,12,07,11,15,9.10
2015,12,07,11,16,9.10
2015,12,07,11,17,9.10
2015,12,07,11,18,9.10
2015,12,07,11,19,9.10
2015,12,07,11,20,9.10
2015,12,07,11,21,9.10
2015,12,07,11,22,9.10
2015,12,07,11,23,9.10
2015,12,07,11,24,9.10
2015,12,07,11,25,9.10
2015,12,07,11,26,9.10
2015,12,07,11,27,9.10
2015,12,07,11,28,9.10
2015,12,07,11,29,9.10
2015,12,07,11,30,9.10
2015,12,07,11,31,9.10
2015,12,07,11,32,9.10
2015,12,07,11,33,9.10
2015,12,07,11,34,9.10
2015,12,07,11,35,9.10
2015,12,07,11,36,9.10
2015,12,07,11,37,9.10
2015,12,07,11,38,9.10
2015,12,07,11,39,9.10
2015,12,07,11,40,9.10
2015,12,07,11,41,9.10
2015,12,07,11,42,9.10
2015,12,07,11,43,9.10
2015,12,07,11,44,9.10
2015,12,07,11,45,9.10
2015,12,07,11,46,9.10
2015,12,07,11,47,9.10
2015,12,07,11,48,9.10
2015,12,07,11,49,9.10
2015,12,07,11,50,9.10
2015,12,07,11,51,9.10
2015,12,07,11,52,9.10
2015,12,07,11,53,9.10
2015,12,07,11,54,9.10
2015,12,07,11,55,9.10
2015,12,07,11,56,9.10
2015,12,07,11,57,9.10
2015,12,07,11,58,9.10
2015,12,07,11,59,9.10
2015,12,07,12,00,9.10
2015,12,07,12,01,9.10
2015,12,07,12,02,9.10
2015,12,07,12,03,9.10
2015,12,07,12,04,9.10
2015,12,07,12,05,9.10
2015,12,07,12,06,9.10
2015,12,07,12,07,9.10
2015,12,07,12,08,9.10
2015,12,07,12,09,9.10
2015,12,07,12,10,9.10
2015,12,07,12,11,9.10
2015,12,07,12,12,9.10
2015,12,07,12,13,9.10
2015,12,07,12,14,9.10
2015,12,07,12,15,9.10
2015,12,07,12,16,9.10
2015,12,07,12,17,9.10
2015,12,07,12,18,9.10
2015,12,07,12,19,9.10
2015,12,07,12,20,9.10
2015,12,07,12,21,9.10
2015,12,07,12,22,9.10
2015,12,07,12,23,9.10
2015,12,07,12,24,9.10
2015,12,07,12,25,9.10
2015,12,07,12,26,9.10
2015,12,07,12,27,9.10
2015,12,07,12,28,9.10
2015,12,07,12,29,9.10
2015,12,07,12,30,9.10
2015,12,07,12,31,9.10
2015,12,07,12,32,9.10
2015,12,07,12,33,9.10
2015,12,07,12,34,9.10
2015,12,07,12,35,9.10
2015,12,07,12,36,9.10
2015,12,07,12,37,9.10
2015,12,07,12,38,9.10
2015,12,07,12,39,9.10
2015,12,07,12,40,9.10
2015,12,07,12,41,9.10
2015,12,07,12,42,9.10
2015,12,07,12,43,9.10
2015,12,07,12,44,9.10
2015,12,07,12,45,9.10
2015,12,07,12,46,9.10
2015,12,07,12,47,9.10
2015,12,07,12,48,9.10
2015,12,07,12,49,9.20
2015,12,07,12,50,9.10
2015,12,07,12,51,9.20
2015,12,07,12,52,9.10
2015,12,07,12,53,9.10
2015,12,07,12,54,9.20
2015,12,07,12,55,9.10
2015,12,07,12,56,9.20
2015,12,07,12,57,9.10
2015,12,07,12,58,9.10
2015,12,07,12,59,9.10
2015,12,07,13,00,9.10
2015,12,07,13,01,9.10
2015,12,07,13,02,9.10
2015,12,07,13,03,9.10
2015,12,07,13,04,9.10
2015,12,07,13,05,9.10
2015,12,07,13,06,9.10
2015,12,07,13,07,9.10
2015,12,07,13,08,9.10
2015,12,07,13,09,9.10
2015,12,07,13,10,9.10
2015,12,07,13,11,9.10
2015,12,07,13,12,9.10
2015,12,07,13,13,9.10
2015,12,07,13,14,9.10
2015,12,07,13,15,9.10
2015,12,07,13,16,9.10
2015,12,07,13,17,9.10
2015,12,07,13,18,9.10
2015,12,07,13,19,9.10
2015,12,07,13,20,9.10
2015,12,07,13,21,9.10
2015,12,07,13,22,9.10
2015,12,07,13,23,9.10
2015,12,07,13,24,9.10
2015,12,07,13,25,9.10
2015,12,07,13,26,9.10
2015,12,07,13,27,9.10
2015,12,07,13,28,9.10
2015,12,07,13,29,9.20
2015,12,07,13,30,9.20
2015,12,07,13,31,9.20
2015,12,07,13,32,9.20
2015,12,07,13,33,9.20
2015,12,07,13,34,9.20
2015,12,07,13,35,9.20
2015,12,07,13,36,9.20
2015,12,07,13,37,9.20
2015,12,07,13,38,9.20
2015,12,07,13,39,9.20
2015,12,07,13,40,9.20
2015,12,07,13,41,9.20
2015,12,07,13,42,9.20
2015,12,07,13,43,9.20
2015,12,07,13,44,9.20
2015,12,07,13,45,9.20
2015,12,07,13,46,9.20
2015,12,07,13,47,9.20
2015,12,07,13,48,9.20
2015,12,07,13,49,9.20
2015,12,07,13,50,9.20
2015,12,07,13,51,9.20
2015,12,07,13,52,9.20
2015,12,07,13,53,9.20
2015,12,07,13,54,9.20
2015,12,07,13,55,9.20
2015,12,07,13,56,9.20
2015,12,07,13,57,9.20
2015,12,07,13,58,9.20
2015,12,07,13,59,9.20
2015,12,07,14,00,9.20
2015,12,07,14,01,9.20
2015,12,07,14,02,9.20
2015,12,07,14,03,9.20
2015,12,07,14,04,9.20
2015,12,07,14,05,9.20
2015,12,07,14,06,9.20
2015,12,07,14,07,9.20
2015,12,07,14,08,9.20
2015,12,07,14,09,9.20
2015,12,07,14,10,9.20
2015,12,07,14,11,9.20
2015,12,07,14,12,9.20
2015,12,07,14,13,9.20
2015,12,07,14,14,9.20
2015,12,07,14,15,9.20
2015,12,07,14,16,9.20
2015,12,07,14,17,9.20
2015,12,07,14,18,9.20
2015,12,07,14,19,9.20
2015,12,07,14,20,9.20
2015,12,07,14,21,9.20
2015,12,07,14,22,9.20
2015,12,07,14,23,9.20
2015,12,07,14,24,9.20
2015,12,07,14,25,9.20
2015,12,07,14,26,9.20
2015,12,07,14,27,9.20
2015,12,07,14,28,9.20
2015,12,07,14,29,9.20
2015,12,07,14,30,9.20
2015,12,07,14,31,9.20
2015,12,07,14,32,9.20
2015,12,07,14,33,9.20
2015,12,07,14,34,9.20
2015,12,07,14,35,9.20
2015,12,07,14,36,9.20
2015,12,07,14,37,9.30
2015,12,07,14,38,9.30
2015,12,07,14,39,9.30
2015,12,07,14,40,9.30
2015,12,07,14,41,9.30
2015,12,07,14,42,9.30
2015,12,07,14,43,9.30
2015,12,07,14,44,9.30
2015,12,07,14,45,9.30
2015,12,07,14,46,9.30
2015,12,07,14,47,9.30
2015,12,07,14,48,9.30
2015,12,07,14,49,9.30
2015,12,07,14,50,9.30
2015,12,07,14,51,9.30
2015,12,07,14,52,9.30
2015,12,07,14,53,9.30
2015,12,07,14,54,9.30
2015,12,07,14,55,9.30
2015,12,07,14,56,9.30
2015,12,07,14,57,9.30
2015,12,07,14,58,9.30
2015,12,07,14,59,9.30
2015,12,07,15,00,9.30
2015,12,07,15,01,9.30
2015,12,07,15,02,9.30
2015,12,07,15,03,9.30
2015,12,07,15,04,9.30
2015,12,07,15,05,9.30
2015,12,07,15,06,9.30
2015,12,07,15,07,9.20
2015,12,07,15,08,9.20
2015,12,07,15,09,9.20
2015,12,07,15,10,9.20
2015,12,07,15,11,9.20
2015,12,07,15,12,9.20
2015,12,07,15,13,9.20
2015,12,07,15,14,9.20
2015,12,07,15,15,9.20
2015,12,07,15,16,9.20
2015,12,07,15,17,9.20
2015,12,07,15,18,9.20
2015,12,07,15,19,9.20
2015,12,07,15,20,9.20
2015,12,07,15,21,9.20
2015,12,07,15,22,9.20
2015,12,07,15,23,9.20
2015,12,07,15,24,9.20
2015,12,07,15,25,9.20
2015,12,07,15,26,9.20
2015,12,07,15,27,9.20
2015,12,07,15,28,9.20
2015,12,07,15,29,9.20
2015,12,07,15,30,9.10
2015,12,07,15,31,9.10
2015,12,07,15,32,9.10
2015,12,07,15,33,9.10
2015,12,07,15,34,9.10
2015,12,07,15,35,9.10
2015,12,07,15,36,9.10
2015,12,07,15,37,9.10
2015,12,07,15,38,9.10
2015,12,07,15,39,9.10
2015,12,07,15,40,9.10
2015,12,07,15,41,9.10
2015,12,07,15,42,9.10
2015,12,07,15,43,9.10
2015,12,07,15,44,9.10
2015,12,07,15,45,9.10
2015,12,07,15,46,9.10
2015,12,07,15,47,9.10
2015,12,07,15,48,9.10
2015,12,07,15,49,9.10
2015,12,07,15,50,9.10
2015,12,07,15,51,9.10
2015,12,07,15,52,9.00
2015,12,07,15,53,9.00
2015,12,07,15,54,9.00
2015,12,07,15,55,9.00
2015,12,07,15,56,9.00
2015,12,07,15,57,9.00
2015,12,07,15,58,9.00
2015,12,07,15,59,9.00
2015,12,07,16,00,9.00
2015,12,07,16,01,8.90
2015,12,07,16,02,9.00
2015,12,07,16,03,8.90
2015,12,07,16,04,8.90
2015,12,07,16,05,8.90
2015,12,07,16,06,8.90
2015,12,07,16,07,8.90
2015,12,07,16,08,8.90
2015,12,07,16,09,8.90
2015,12,07,16,10,8.90
2015,12,07,16,11,8.90
2015,12,07,16,12,8.90
2015,12,07,16,13,9.00
2015,12,07,16,14,8.90
2015,12,07,16,15,8.90
2015,12,07,16,16,8.90
2015,12,07,16,17,8.90
2015,12,07,16,18,9.00
2015,12,07,16,19,9.00
2015,12,07,16,20,8.90
2015,12,07,16,21,8.90
2015,12,07,16,22,8.90
2015,12,07,16,23,8.90
2015,12,07,16,24,8.90
2015,12,07,16,25,8.90
2015,12,07,16,26,8.90
2015,12,07,16,27,8.90
2015,12,07,16,28,8.90
2015,12,07,16,29,8.90
2015,12,07,16,30,8.90
2015,12,07,16,31,8.90
2015,12,07,16,32,8.90
2015,12,07,16,33,8.90
2015,12,07,16,34,8.90
2015,12,07,16,35,9.00
2015,12,07,16,36,9.00
2015,12,07,16,37,9.00
2015,12,07,16,38,9.00
2015,12,07,16,39,9.00
2015,12,07,16,40,9.00
2015,12,07,16,41,9.00
2015,12,07,16,42,9.00
2015,12,07,16,43,9.00
2015,12,07,16,44,9.00
2015,12,07,16,45,9.00
2015,12,07,16,46,9.00
2015,12,07,16,47,9.10
2015,12,07,16,48,9.00
2015,12,07,16,49,9.00
2015,12,07,16,50,9.00
2015,12,07,16,51,9.00
2015,12,07,16,52,9.00
2015,12,07,16,53,9.00
2015,12,07,16,54,9.00
2015,12,07,16,55,9.00
2015,12,07,16,56,9.00
2015,12,07,16,57,9.00
2015,12,07,16,58,9.00
2015,12,07,16,59,9.00
2015,12,07,17,00,9.00
2015,12,07,17,01,9.00
2015,12,07,17,02,9.00
2015,12,07,17,03,9.00
2015,12,07,17,04,9.00
2015,12,07,17,05,9.00
2015,12,07,17,06,9.00
2015,12,07,17,07,9.00
2015,12,07,17,08,9.00
2015,12,07,17,09,9.00
2015,12,07,17,10,9.00
2015,12,07,17,11,9.00
2015,12,07,17,12,9.00
2015,12,07,17,13,9.00
2015,12,07,17,14,9.00
2015,12,07,17,15,9.00
2015,12,07,17,16,9.00
2015,12,07,17,17,8.90
2015,12,07,17,18,8.90
2015,12,07,17,19,8.90
2015,12,07,17,20,8.90
2015,12,07,17,21,8.90
2015,12,07,17,22,8.90
2015,12,07,17,23,8.90
2015,12,07,17,24,8.90
2015,12,07,17,25,8.90
2015,12,07,17,26,8.90
2015,12,07,17,27,8.90
2015,12,07,17,28,8.90
2015,12,07,17,29,8.90
2015,12,07,17,30,8.90
2015,12,07,17,31,8.90
2015,12,07,17,32,8.90
2015,12,07,17,33,8.90
2015,12,07,17,34,8.90
2015,12,07,17,35,8.90
2015,12,07,17,36,8.90
2015,12,07,17,37,8.90
2015,12,07,17,38,8.80
2015,12,07,17,39,8.80
2015,12,07,17,40,8.80
2015,12,07,17,41,8.80
2015,12,07,17,42,8.80
2015,12,07,17,43,8.80
2015,12,07,17,44,8.80
2015,12,07,17,45,8.80
2015,12,07,17,46,8.80
2015,12,07,17,47,8.80
2015,12,07,17,48,8.80
2015,12,07,17,49,8.80
2015,12,07,17,50,8.80
2015,12,07,17,51,8.80
2015,12,07,17,52,8.80
2015,12,07,17,53,8.80
2015,12,07,17,54,8.80
2015,12,07,17,55,8.80
2015,12,07,17,56,8.80
2015,12,07,17,57,8.80
2015,12,07,17,58,8.80
2015,12,07,17,59,8.80
2015,12,07,18,00,8.80
2015,12,07,18,01,8.80
2015,12,07,18,02,8.80
2015,12,07,18,03,8.80
2015,12,07,18,04,8.80